This is the latest recevied weather packets stored in our database for station/object K2CAT. If no packets are shown the sender has not sent any weather packets the latest 10 day(s).
| Time | Temp. | Humidity | Pressure | Rain* | Wind** | Luminosity | Snow |
|---|---|---|---|---|---|---|---|
| 1777527230 | 8.89° C | 97% | 1009.2 hPa | 3.05 mm | - | 0 W/m² | - |
| 1777526926 | 8.89° C | 98% | 1009 hPa | 3.05 mm | - | 0 W/m² | - |
| 1777526622 | 8.89° C | 98% | 1009.2 hPa | 4.83 mm | - | 0 W/m² | - |
| 1777526316 | 8.89° C | 98% | 1009.2 hPa | 4.83 mm | - | 0 W/m² | - |
| 1777526013 | 8.89° C | 98% | 1009.4 hPa | 6.1 mm | - | 0 W/m² | - |
| 1777525710 | 8.89° C | 98% | 1009.2 hPa | 7.11 mm | - | 0 W/m² | - |
| 1777525407 | 8.89° C | 98% | 1009.2 hPa | 4.83 mm | - | 0 W/m² | - |
| 1777525103 | 8.89° C | 98% | 1009.1 hPa | 3.05 mm | - | 0 W/m² | - |
| 1777524800 | 8.89° C | 97% | 1009.2 hPa | 3.05 mm | - | 0 W/m² | - |
| 1777524498 | 9.44° C | 97% | 1009.2 hPa | 1.78 mm | - | 0 W/m² | - |
| 1777524195 | 9.44° C | 97% | 1009.1 hPa | 3.05 mm | - | 0 W/m² | - |
| 1777523890 | 9.44° C | 97% | 1009.2 hPa | 6.1 mm | - | 0 W/m² | - |
| 1777523588 | 9.44° C | 97% | 1009.1 hPa | 6.1 mm | - | 0 W/m² | - |
| 1777523283 | 9.44° C | 97% | 1009.2 hPa | 7.11 mm | - | 0 W/m² | - |
| 1777522979 | 9.44° C | 97% | 1009.4 hPa | 4.83 mm | - | 0 W/m² | - |
| 1777522677 | 9.44° C | 97% | 1009.7 hPa | 3.05 mm | - | 0 W/m² | - |
| 1777522373 | 9.44° C | 97% | 1009.4 hPa | 4.32 mm | - | 0 W/m² | - |
| 1777522070 | 9.44° C | 97% | 1009.8 hPa | 6.6 mm | - | 0 W/m² | - |
| 1777521767 | 9.44° C | 96% | 1009.5 hPa | 4.83 mm | - | 0 W/m² | - |
| 1777521463 | 9.44° C | 96% | 1009.7 hPa | 1.27 mm | - | 0 W/m² | - |
| 1777521160 | 9.44° C | 96% | 1009.9 hPa | 1.78 mm | - | 0 W/m² | - |
| 1777520858 | 9.44° C | 96% | 1010 hPa | 6.1 mm | - | 0 W/m² | - |
| 1777520555 | 9.44° C | 96% | 1009.9 hPa | 6.1 mm | - | 0 W/m² | - |
| 1777520251 | 9.44° C | 96% | 1010 hPa | 3.05 mm | - | 0 W/m² | - |
| 1777519950 | 9.44° C | 96% | 1009.9 hPa | 1.27 mm | - | 0 W/m² | - |
* Rain latest hour (hover to see other rain measurements)
** Current wind speed in m/s (hover to see current wind gust speed)